Find ADDCUBE

NORAD ID: 64560 Int'l Des: NNA 2025-135 Owner: NARAST Country: KR operational
LEOCIRCULARRETROGRADESSO

当前视图

正在加载3D地球...

关于 ADDCUBE

正在加载描述...

即将过境

Passes for default location (London). Set your location on the main map for personalized predictions.

高度历史

Loading altitude history...

两行轨道根数

1 64560U 25135AJ 26149.27213177 .00006952 00000-0 63361-3 0 9993
2 64560 97.7720 264.1103 0001328 79.0555 281.0815 14.95440969 51087
Epoch: May 29, 2026 • Age: 23 hours

当前状态

高度 591.5 km
速度 7.57 km/s
星下点 66.00°N, 80.12°W
发射日期 Jun 23, 2025
运行时间 0.9 years
类型 other

技术详情

分类 Payload
质量 10.00 kg
干质量 10.00 kg
总质量 10.00 kg
长度 0.30 m
直径 0.20 m
跨度 0.30 m
形状 Box
制造商 NARAST
平台类型 Cubesat 6U
阶段状态 In Orbit
所有者/国家 NARAST/KR

Most Searched